Miscellaneous Local Product
Issued by NWS North Platte, NE

Home | Current Version | Previous Version | Text Only | Print | Product List | Glossary On
Versions: 1 2 3 4 5 6 7 8 9 10 11 12 13 14 15 16 17 18 19 20 21 22 23 24 25 26 27 28 29 30 31 32 33 34 35 36 37 38 39 40 41 42 43 44 45 46 47 48 49 50
181
AXUS43 KLBF 201910
MISLBF


WESTERN AND NORTH CENTRAL NEBRASKA HOURLY WEATHER ROUNDUP
NATIONAL WEATHER SERVICE NORTH PLATTE NE
200 PM CDT THU JUL 20 2017

NOTE: "FAIR" INDICATES FEW OR NO CLOUDS BELOW 12,000 FEET WITH NO
SIGNIFICANT WEATHER AND/OR OBSTRUCTIONS TO VISIBILITY.

NOTE: STATIONS NOT REPORTING VARIABLES SUCH AS SKY/WEATHER OR
PRESSURE ARE PROVIDED BY RAWS AND APRS NETWORKS AND ARE NOT UNDER
NATIONAL WEATHER SERVICE QUALITY CONTROL.

...OBSERVATIONS IN AND NEAR THE EASTERN PANHANDLE OF NEBRASKA...

CITY           SKY/WX    TMP DP  RH WIND       PRES   REMARKS
PINE RIDGE     SUNNY     90  63  40 S9        30.07F HX  91
GORDON         FAIR      85  64  48 S9        30.10F
CHADRON        SUNNY     91  58  32 S12G17    30.05F HX  90
ALLIANCE       SUNNY     87  63  44 MISG      30.11F
SIDNEY         SUNNY     90  57  32 E10G18    30.14F
CRESCENT LAKE    N/A     88  61  40 SE6G13      N/A
$$

...OBSERVATIONS IN NORTHERN NEBRASKA AND FAR SOUTHERN SOUTH DAKOTA...

CITY           SKY/WX    TMP DP  RH WIND       PRES   REMARKS
WINNER         FAIR      94  66  39 SE9       30.01S HX  97
VALENTINE      SUNNY     98  56  24 SE8       30.03F HX  96
THEDFORD       CLOUDY    86  65  49 E13G20    30.08F
AINSWORTH      MOSUNNY   85  67  54 SE12G17   30.07S
O`NEILL        CLOUDY    81  73  76 CALM      30.04F
ORD            CLOUDY    88  64  44 E10       30.01S
BROKEN BOW     CLOUDY    90  68  48 NE15      30.03F HX  94
VALENTINE NWR    N/A     89  64  42 E6          N/A  HX  90
HALSEY           N/A     83  65  53 E7G15       N/A
BUTTE            N/A     85  73  67 SE9G16      N/A  HX  92
CHAMBERS         N/A     89  76  64 CALM        N/A  HX  99
EWING            N/A     80  76  88 CALM        N/A
$$

...OBSERVATIONS IN SOUTHWEST NEBRASKA AND FAR NORTHEAST COLORADO...

CITY           SKY/WX    TMP DP  RH WIND       PRES   REMARKS
HOLYOKE        FAIR      91  61  35 NE7       30.08F HX  91
IMPERIAL       SUNNY     95  55  26 CALM      30.02F HX  93
OGALLALA       SUNNY     90  57  32 E17G23    30.06F
NORTH PLATTE   SUNNY     89  67  47 E17G25    30.03F HX  92
MCCOOK         SUNNY     97  64  33 E10       29.99F HX  99
LEXINGTON      MOSUNNY   87  70  57 SE10      30.02S HX  91
STAPLETON        N/A     85  63  47 NE7G14      N/A
GOTHENBURG       N/A     85  64  48 E8          N/A
CALLAWAY         N/A     81  71  70 E9          N/A
$$

...OBSERVATIONS IN CENTRAL LINCOLN COUNTY AREA...

CITY           SKY/WX    TMP DP  RH WIND       PRES   REMARKS
N.P. AIRPORT   SUNNY     89  67  47 E17G25    30.03F HX  92
N.P. DOWNTOWN    N/A     88  67  50 E8          N/A  HX  91
N.P. SOUTHEAST   N/A     88  67  50 E3G12       N/A  HX  91
N.P. HILLCREST   N/A     87  66  49 E18         N/A
$$

...SOME OBSERVATIONS FROM AROUND THE REGION...

CITY           SKY/WX    TMP DP  RH WIND       PRES   REMARKS
DENVER         MOSUNNY   88  53  30 NE6       30.19F
LIMON          SUNNY     88  56  33 NE8       30.19F
ASPEN          CLOUDY    84  45  25 NW10      30.36F
LARAMIE        SUNNY     82  46  28 N7        30.31F
CASPER         SUNNY     90  49  24 SW10      30.12F
CHEYENNE       SUNNY     85  50  29 VRB3      30.24F
SCOTTSBLUFF    SUNNY     86  63  45 E9        30.11F
GRAND ISLAND   PTSUNNY   87  73  62 SE10      30.00F HX  94
OMAHA          MOSUNNY   96  70  42 SE9       29.94F HX 102
SIOUX FALLS    PTSUNNY   86  72  62 E14       30.02F HX  92
RAPID CITY     SUNNY     95  57  27 S18       30.02F HX  94
BISMARCK       SUNNY     92  60  34 S12       29.96F HX  91
KANSAS CITY    MOSUNNY   95  77  55 SW13      30.01F HX 109
HILL CITY      MOSUNNY  103  60  24 S12G20    29.97F HX 104
WICHITA        MOSUNNY  100  65  31 SW14G26   30.00F HX 103
DODGE CITY     SUNNY     99  54  22 SW18G29   30.03F HX  97
OKLAHOMA CITY  MOSUNNY   99  64  31 S9G20     30.05F HX 101
DALLAS         MOSUNNY   96  68  39 CALM      30.05F HX 101
AMARILLO       MOSUNNY   92  55  28 S13G24    30.17F HX  90
$$




USA.gov is the U.S. government's official web portal to all federal, state and local government web resources and services.